Вернуться в каталог

KUIPER-00191

АктивенСвязьLEO
NORAD 67143·PAYLOAD·🇺🇸 United States

Запущен Dec 15, 2025 с Cape Canaveral Space Force Station

Loading…

Ближайшие Пролёты (ближайшие 24 часа)

TLE

СвежийSource: CelesTrak SupGP

Эпоха: Sep 14, 2026, 22:50 UTC

1 67143C 25301L   26257.95173611  .00002090  00000+0  27362-3 0  2577
2 67143  51.9007 316.2373 0000415  82.2351 176.1198 14.79918423    13

Отслеживайте KUIPER-00191 в реальном времени с AllMySat

Download on the App Store